STARLINK-5847

decayed
NORAD ID: 57048 Int'l Des: 2023-088 Owner: SPXS Country: US Constellation: starlink
LEOCIRCULAR
Group

About STARLINK-5847

Description loading...

Altitude History

Altitude vs Time

uPlot chart will show altitude changes over time

Two-Line Element Set

1 57048U 23088A 25057.76681458 .03390794 93548-5 10000-3 0 9992
2 57048 42.9811 313.2248 0007678 238.1005 181.1184 16.44822429 93346
Epoch: Feb 26, 2025 • Age: 4875 hours

Current Status

Position data unavailable
Launch Date Jun 22, 2023
Age 2.2 years
Decay Date Feb 26, 2025
Type internet

Technical Details

Classification Payload
Mass 305.00 kg
Dry Mass 290.00 kg
Total Mass 305.00 kg
Length 0.20 m
Diameter 2.80 m
Span 9.00 m
Shape Box + pan
Manufacturer SPXS
Bus Type Starlink
Phase Status Unknown Transfer Status
Owner/State SPXS/US

Large Constellations

Loading constellations...